WA2GUG Weather Reports


time (UTC)temp
C
wind
direction
speed
KPH
gust
KPH
rain 1hr
cm
rain 24hr
cm
rain mn
cm
humidity
%
barometer
mb
20260510170930 24 71 0.0 0.0 0.00 0.00 0.00 99 1008.0
20260510170430 25 47 0.0 0.0 0.00 0.00 0.00 99 1008.0
20260510165930 26 19 0.0 0.0 0.00 0.00 0.00 99 1008.0
20260510165430 -17 139 0.0 0.0 0.00 0.00 0.00 99 1008.0
20260510164930 -17 148 0.0 0.0 0.00 0.00 0.00 99 1008.0
20260510164430 18 59 0.0 0.0 0.00 0.00 0.00 99 1008.0
20260510163930 18 227 0.0 0.0 0.00 0.00 0.00 99 1008.2
20260510163430 18 92 0.0 0.0 0.00 0.00 0.00 99 1008.2
20260510162930 18 260 0.0 0.0 0.00 0.00 0.00 99 1008.2
20260510162430 20 83 0.0 0.0 0.00 0.00 0.00 99 1008.2
20260510161930 20 357 0.0 0.0 0.00 0.00 0.00 99 1008.2
20260510161430 21 46 0.0 0.0 0.00 0.00 0.00 99 1008.0
20260510160930 21 85 0.0 4.8 0.00 0.00 0.00 99 1008.0
20260510160430 22 93 0.0 4.8 0.00 0.00 0.00 99 1008.0
20260510155930 23 144 0.0 0.0 0.00 0.00 0.00 99 1008.0
20260510155430 22 258 0.0 0.0 0.00 0.00 0.00 99 1008.0
20260510154930 22 318 0.0 0.0 0.00 0.00 0.00 99 1008.0
20260510154430 22 285 0.0 0.0 0.00 0.00 0.00 99 1008.0
20260510153930 20 79 0.0 0.0 0.00 0.00 0.00 99 1008.0
20260510153430 19 247 0.0 0.0 0.00 0.00 0.00 99 1008.1
20260510152929 20 314 0.0 0.0 0.00 0.00 0.00 99 1008.2
20260510152430 20 45 0.0 0.0 0.00 0.00 0.00 99 1008.1
20260510151930 20 213 0.0 0.0 0.00 0.00 0.00 99 1008.0
20260510151430 20 269 0.0 0.0 0.00 0.00 0.00 99 1008.0
20260510150929 21 178 0.0 0.0 0.00 0.00 0.00 99 1008.0
20260510150430 21 94 0.0 0.0 0.00 0.00 0.00 99 1008.0
20260510145929 22 44 0.0 0.0 0.00 0.00 0.00 99 1008.0
20260510145429 22 284 0.0 0.0 0.00 0.00 0.00 99 1008.0
20260510144929 22 261 0.0 0.0 0.00 0.00 0.00 99 1008.0
20260510144429 22 180 0.0 0.0 0.00 0.00 0.00 99 1008.0
20260510143929 22 253 0.0 0.0 0.00 0.00 0.00 99 1008.0
20260510143430 21 69 0.0 0.0 0.00 0.00 0.00 99 1008.0
20260510142929 20 261 0.0 0.0 0.00 0.00 0.00 99 1008.0
20260510142429 18 316 0.0 0.0 0.00 0.00 0.00 99 1008.0
20260510141929 17 314 0.0 0.0 0.00 0.00 0.00 99 1008.0
20260510141429 17 279 0.0 0.0 0.00 0.00 0.00 99 1008.0
20260510140929 -17 306 0.0 0.0 0.00 0.00 0.00 99 1008.0
20260510140429 -17 291 0.0 0.0 0.00 0.00 0.00 99 1008.0
20260510135929 -17 302 0.0 0.0 0.00 0.00 0.00 99 1008.0
20260510135429 -17 313 0.0 0.0 0.00 0.00 0.00 99 1008.0
20260510134929 -17 233 0.0 0.0 0.00 0.00 0.00 99 1008.0
20260510134429 -17 148 0.0 0.0 0.00 0.00 0.00 99 1008.0
20260510133929 -17 230 0.0 0.0 0.00 0.00 0.00 99 1007.2
20260510133430 -17 244 0.0 0.0 0.00 0.00 0.00 99 1008.0
20260510132929 -17 155 0.0 0.0 0.00 0.00 0.00 99 1008.0
20260510132429 -17 274 0.0 0.0 0.00 0.00 0.00 99 1008.0
20260510131929 -17 218 0.0 0.0 0.00 0.00 0.00 99 1008.0
20260510131429 -17 248 0.0 0.0 0.00 0.00 0.00 99 1007.2
20260510130929 -17 228 0.0 0.0 0.00 0.00 0.00 99 1008.0
20260510130429 -17 240 0.0 0.0 0.00 0.00 0.00 99 1008.0
20260510125929 -17 274 0.0 0.0 0.00 0.00 0.00 99 1008.0
20260510125429 -17 273 0.0 0.0 0.00 0.00 0.00 99 1008.0
20260510124929 -17 108 0.0 0.0 0.00 0.00 0.00 99 1008.0
20260510124429 -17 266 0.0 0.0 0.00 0.00 0.00 99 1008.0
20260510123929 -17 12 0.0 0.0 0.00 0.00 0.00 99 1008.0
20260510123430 -17 12 0.0 0.0 0.00 0.00 0.00 99 1007.2
20260510122929 -17 313 0.0 0.0 0.00 0.00 0.00 99 1007.2
20260510122429 -17 181 0.0 0.0 0.00 0.00 0.00 99 1007.2
20260510121929 -17 273 0.0 0.0 0.00 0.00 0.00 99 1007.2
20260510121429 -17 52 0.0 0.0 0.00 0.00 0.00 99 1007.2
20260510120929 -17 90 0.0 0.0 0.00 0.00 0.00 99 1007.2
20260510120429 -17 15 0.0 0.0 0.00 0.00 0.00 99 1007.2
20260510115929 -17 56 0.0 0.0 0.00 0.00 0.00 99 1007.2
20260510115429 -17 37 0.0 0.0 0.00 0.00 0.00 99 1008.0
20260510114929 -17 3 0.0 0.0 0.00 0.00 0.00 99 1007.2
20260510114429 -17 0 0.0 0.0 0.00 0.00 0.00 99 1008.0
20260510113929 -17 286 0.0 0.0 0.00 0.00 0.00 99 1008.0
20260510113429 -17 273 0.0 0.0 0.00 0.00 0.00 99 1008.0
20260510112929 -17 275 0.0 0.0 0.00 0.00 0.00 99 1007.2
20260510112429 -17 254 0.0 0.0 0.00 0.00 0.00 99 1008.0
20260510111929 -17 305 0.0 0.0 0.00 0.00 0.00 99 1007.2
20260510111429 -17 257 0.0 0.0 0.00 0.00 0.00 99 1007.2
20260510110929 -17 261 0.0 0.0 0.00 0.00 0.00 99 1008.0
20260510110429 -17 262 0.0 0.0 0.00 0.00 0.00 99 1008.0
20260510105429 -17 166 0.0 0.0 0.00 0.00 0.00 99 1007.2
20260510104929 -17 150 0.0 0.0 0.00 0.00 0.00 99 1008.0
20260510104429 -17 173 0.0 0.0 0.00 0.00 0.00 99 1008.0
20260510103929 -17 197 0.0 0.0 0.00 0.00 0.00 99 1007.1
20260510103429 -17 101 0.0 0.0 0.00 0.00 0.00 99 1007.1
20260510102929 -17 172 0.0 0.0 0.00 0.00 0.00 99 1007.1
20260510102429 -17 139 0.0 0.0 0.00 0.00 0.00 99 1007.0
20260510101929 -17 163 0.0 0.0 0.00 0.00 0.00 99 1007.0
20260510101429 -17 77 0.0 0.0 0.00 0.00 0.00 99 1007.0
20260510100929 -17 198 0.0 0.0 0.00 0.00 0.00 99 1007.0
20260510100429 -17 141 0.0 0.0 0.00 0.00 0.00 99 1007.0
20260510095929 -17 286 0.0 0.0 0.00 0.00 0.00 99 1007.0
20260510095429 -17 311 0.0 0.0 0.00 0.00 0.00 99 1007.0
20260510094929 -17 190 0.0 0.0 0.00 0.00 0.00 99 1007.0
20260510094429 -17 170 0.0 0.0 0.00 0.00 0.00 99 1007.0
20260510093929 -17 248 0.0 0.0 0.00 0.00 0.00 99 1006.2
20260510093429 -17 180 0.0 0.0 0.00 0.00 0.00 99 1007.0
20260510092929 -17 229 0.0 0.0 0.00 0.00 0.00 99 1007.0
20260510092429 -17 218 0.0 0.0 0.00 0.00 0.00 99 1007.0
20260510091929 -17 233 0.0 0.0 0.00 0.00 0.00 99 1007.0
20260510091429 -17 247 0.0 0.0 0.00 0.00 0.00 99 1007.0
20260510090929 -17 174 0.0 0.0 0.00 0.00 0.00 99 1007.0
20260510090429 -17 133 0.0 0.0 0.00 0.00 0.00 99 1007.0
20260510085929 -17 213 0.0 0.0 0.00 0.00 0.00 99 1007.0
20260510085429 -17 225 0.0 0.0 0.00 0.00 0.00 99 1007.0
20260510084929 -17 278 0.0 0.0 0.00 0.00 0.00 99 1007.0
20260510084429 -17 230 0.0 0.0 0.00 0.00 0.00 99 1007.0
20260510083929 -17 232 0.0 0.0 0.00 0.00 0.00 99 1007.0
20260510083429 -17 169 0.0 0.0 0.00 0.00 0.00 99 1007.0
20260510082929 -17 304 0.0 0.0 0.00 0.00 0.00 99 1007.0
20260510082429 -17 213 0.0 0.0 0.00 0.00 0.00 99 1007.0
20260510081929 -17 272 0.0 0.0 0.00 0.00 0.00 99 1007.0
20260510081429 -17 225 0.0 0.0 0.00 0.00 0.00 99 1007.0
20260510080929 -17 224 0.0 0.0 0.00 0.00 0.00 99 1007.0
20260510080429 -17 258 0.0 0.0 0.00 0.00 0.00 99 1007.0
20260510075929 -17 195 0.0 0.0 0.00 0.00 0.00 99 1007.0
20260510075429 -17 225 0.0 0.0 0.00 0.00 0.00 99 1007.0
20260510074929 -17 249 0.0 0.0 0.00 0.00 0.00 99 1007.0
20260510074429 -17 231 0.0 0.0 0.00 0.00 0.00 99 1007.0
20260510073929 -17 206 0.0 0.0 0.00 0.00 0.00 99 1007.0
20260510073429 -17 211 0.0 0.0 0.00 0.00 0.00 99 1007.0
20260510072929 -17 187 0.0 0.0 0.00 0.00 0.00 99 1007.0
20260510072429 -17 226 0.0 0.0 0.00 0.00 0.00 99 1007.0
20260510071929 -17 216 0.0 0.0 0.00 0.00 0.00 99 1007.0
20260510071429 -17 231 0.0 0.0 0.00 0.00 0.00 99 1007.0
20260510070929 -17 263 0.0 0.0 0.00 0.00 0.00 99 1007.0
20260510070429 -17 166 0.0 0.0 0.00 0.00 0.00 99 1007.0
20260510065929 -17 217 0.0 0.0 0.00 0.00 0.00 99 1007.0
20260510065429 -17 289 0.0 0.0 0.00 0.00 0.00 99 1007.0
20260510064929 -17 122 0.0 0.0 0.00 0.00 0.00 99 1007.0
20260510064429 -17 24 0.0 0.0 0.00 0.00 0.00 99 1007.0
20260510063929 -17 177 0.0 0.0 0.00 0.00 0.00 99 1007.0
20260510063429 -17 266 0.0 0.0 0.00 0.00 0.00 99 1007.0
20260510062929 -17 197 0.0 0.0 0.00 0.00 0.00 99 1007.0
20260510062429 -17 214 0.0 0.0 0.00 0.00 0.00 99 1007.0
20260510061929 -17 0 0.0 0.0 0.00 0.00 0.00 99 1007.0
20260510061429 -17 143 0.0 0.0 0.00 0.00 0.00 99 1007.0
20260510060929 -17 184 0.0 0.0 0.00 0.00 0.00 99 1007.0
20260510060429 -17 177 0.0 0.0 0.00 0.00 0.00 99 1007.0
20260510055929 -17 133 0.0 0.0 0.00 0.00 0.00 99 1007.0
20260510055429 -17 289 0.0 0.0 0.00 0.00 0.00 99 1007.0
20260510054929 -17 267 0.0 0.0 0.00 0.00 0.00 99 1007.0
20260510054429 -17 202 0.0 0.0 0.00 0.00 0.00 99 1007.0
20260510053929 -17 181 0.0 0.0 0.00 0.00 0.00 99 1007.0
20260510053429 -17 182 0.0 0.0 0.00 0.00 0.00 99 1007.0
20260510052929 -17 270 0.0 0.0 0.00 0.00 0.00 99 1007.0
20260510052429 -17 228 0.0 0.0 0.00 0.00 0.00 99 1007.0
20260510051929 -17 204 0.0 0.0 0.00 0.00 0.00 99 1007.0
20260510051429 -17 224 0.0 0.0 0.00 0.00 0.00 99 1007.0
20260510050929 -17 183 0.0 0.0 0.00 0.00 0.00 99 1007.0
20260510050429 -17 221 0.0 0.0 0.00 0.00 0.00 99 1007.0
20260510045929 -17 166 0.0 0.0 0.00 0.00 0.00 99 1006.2
20260510045429 -17 229 0.0 0.0 0.00 0.00 0.00 99 1007.0
20260510044929 -17 259 0.0 0.0 0.00 0.00 0.00 99 1007.0
20260510044429 -17 282 0.0 0.0 0.00 0.00 0.00 99 1007.0
20260510043929 -17 231 0.0 0.0 0.00 0.00 0.00 99 1007.0
20260510043429 -17 189 0.0 0.0 0.00 0.00 0.00 99 1007.0
20260510042929 -17 186 0.0 0.0 0.00 0.00 0.00 99 1007.0
20260510042429 -17 185 0.0 0.0 0.00 0.00 0.00 99 1007.0
20260510041929 -17 186 0.0 0.0 0.00 0.00 0.00 99 1007.0
20260510041429 -17 256 0.0 0.0 0.00 0.00 0.00 99 1007.0
20260510040929 -17 218 0.0 1.6 0.00 0.00 0.00 99 1007.0
20260510040429 -17 247 0.0 1.6 0.00 0.00 0.00 99 1007.0
20260510035929 -17 243 0.0 0.0 0.00 0.00 0.00 99 1007.0
20260510035429 -17 261 0.0 0.0 0.00 0.00 0.00 99 1007.0
20260510034929 -17 229 0.0 0.0 0.00 0.00 0.00 99 1007.0
20260510034429 -17 218 0.0 0.0 0.00 0.00 0.00 99 1007.0
20260510033929 -17 256 0.0 0.0 0.00 0.00 0.00 99 1007.0
20260510033429 -17 232 0.0 0.0 0.00 0.00 0.00 99 1007.0
20260510032929 -17 223 0.0 0.0 0.00 0.00 0.00 99 1007.0
20260510032429 -17 229 0.0 0.0 0.00 0.00 0.00 99 1007.0
20260510031929 -17 237 0.0 0.0 0.00 0.00 0.00 99 1006.2
20260510031429 -17 240 0.0 0.0 0.00 0.00 0.00 99 1007.0
20260510030929 -17 216 0.0 0.0 0.00 0.00 0.00 99 1007.0
20260510030429 -17 263 0.0 0.0 0.00 0.00 0.00 99 1007.0
20260510025929 -17 208 0.0 0.0 0.00 0.00 0.00 99 1007.0
20260510025429 -17 171 0.0 0.0 0.00 0.00 0.00 99 1007.0
20260510024929 -17 191 0.0 0.0 0.00 0.00 0.00 99 1007.0
20260510024429 -17 257 0.0 0.0 0.00 0.00 0.00 99 1007.0
20260510023929 -17 233 0.0 0.0 0.00 0.00 0.00 99 1007.0
20260510023429 -17 235 0.0 0.0 0.00 0.00 0.00 99 1007.0
20260510022929 -17 257 0.0 0.0 0.00 0.00 0.00 99 1007.0
20260510022429 -17 256 0.0 0.0 0.00 0.00 0.00 99 1007.0
20260510021929 -17 262 0.0 0.0 0.00 0.00 0.00 99 1007.0
20260510021429 -17 223 0.0 0.0 0.00 0.00 0.00 99 1007.0
20260510020929 -17 232 0.0 0.0 0.00 0.00 0.00 99 1007.0
20260510020428 -17 223 0.0 0.0 0.00 0.00 0.00 99 1007.0
20260510015928 -17 178 0.0 0.0 0.00 0.00 0.00 99 1007.0
20260510015428 -17 209 0.0 0.0 0.00 0.00 0.00 99 1007.0
20260510014928 -17 186 0.0 0.0 0.00 0.00 0.00 99 1007.0
20260510014429 -17 171 0.0 0.0 0.00 0.00 0.00 99 1007.0
20260510013928 -17 217 0.0 0.0 0.00 0.00 0.00 99 1006.2
20260510013429 -17 254 0.0 0.0 0.00 0.00 0.00 99 1007.0
20260510012928 -17 239 0.0 0.0 0.00 0.00 0.00 99 1007.0
20260510012428 -17 195 0.0 0.0 0.00 0.00 0.00 99 1006.2
20260510011929 -17 227 0.0 0.0 0.00 0.00 0.00 99 1007.0
20260510011428 -17 184 0.0 0.0 0.00 0.00 0.00 99 1007.0
20260510010928 -17 286 0.0 0.0 0.00 0.00 0.00 99 1007.0
20260510010428 -17 234 0.0 0.0 0.00 0.00 0.00 99 1007.0
20260510005928 -17 235 0.0 0.0 0.00 0.00 0.00 99 1007.0
20260510005428 -17 251 0.0 0.0 0.00 0.00 0.00 99 1007.0
20260510004928 -17 242 0.0 0.0 0.00 0.00 0.00 99 1007.0
20260510004428 -17 238 0.0 0.0 0.00 0.00 0.00 99 1007.0
20260510003928 -17 268 0.0 0.0 0.00 0.00 0.00 99 1007.0
20260510003429 -17 252 0.0 1.6 0.00 0.00 0.00 99 1007.0
20260510002928 -17 249 0.0 3.2 0.00 0.00 0.00 99 1006.1
20260510002428 -17 230 0.0 3.2 0.00 0.00 0.00 99 1006.0
20260510001928 -17 224 0.0 4.8 0.00 0.00 0.00 99 1006.0
20260510001428 -17 215 0.0 6.4 0.00 0.00 0.00 99 1006.0
20260510000928 -17 227 0.0 6.4 0.00 0.00 0.00 99 1006.0
20260510000428 -17 229 0.0 4.8 0.00 0.00 0.00 99 1006.0
20260509235928 -17 249 0.0 4.8 0.00 0.00 0.00 99 1006.0
20260509235428 -17 260 0.0 4.8 0.00 0.00 0.00 99 1006.0
20260509234928 -17 244 0.0 4.8 0.00 0.00 0.00 99 1006.0
20260509234428 -17 237 1.6 6.4 0.00 0.00 0.00 99 1006.0
20260509233928 -17 241 1.6 6.4 0.00 0.00 0.00 99 1006.0
20260509233429 -17 236 0.0 6.4 0.00 0.00 0.00 99 1005.2
20260509232928 -17 225 1.6 6.4 0.00 0.00 0.00 99 1006.0
20260509232428 -17 227 0.0 3.2 0.00 0.00 0.00 99 1005.2
20260509231928 -17 264 0.0 4.8 0.00 0.00 0.00 99 1005.2
20260509231428 -17 256 1.6 4.8 0.00 0.00 0.00 99 1005.2
20260509230928 -17 260 0.0 3.2 0.00 0.00 0.00 99 1005.2
20260509230428 -17 274 0.0 4.8 0.00 0.00 0.00 99 1005.2
20260509225928 -17 260 0.0 6.4 0.00 0.00 0.00 99 1005.2
20260509225428 -17 226 1.6 6.4 0.00 0.00 0.00 99 1006.0
20260509224928 -17 269 0.0 6.4 0.00 0.00 0.00 99 1006.0
20260509224428 -17 237 1.6 6.4 0.00 0.00 0.00 99 1006.0
20260509223928 -17 258 1.6 6.4 0.00 0.00 0.00 99 1006.0
20260509223428 -17 217 1.6 6.4 0.00 0.00 0.00 99 1005.2
20260509222928 -17 233 1.6 6.4 0.00 0.00 0.00 99 1005.2
20260509222428 -17 176 1.6 6.4 0.00 0.00 0.00 99 1005.2
20260509221928 -17 158 1.6 4.8 0.00 0.00 0.00 99 1006.0
20260509221428 -17 242 0.0 6.4 0.00 0.00 0.00 99 1006.0
20260509220928 -17 268 1.6 6.4 0.00 0.00 0.00 99 1006.0
20260509220428 -17 158 1.6 6.4 0.00 0.00 0.00 99 1005.2
20260509215928 -17 232 0.0 0.0 0.00 0.00 0.00 99 1006.0
20260509215428 -17 255 0.0 0.0 0.00 0.00 0.00 99 1006.0
20260509214928 -17 220 0.0 0.0 0.00 0.00 0.00 99 1006.0
20260509214428 -17 245 0.0 0.0 0.00 0.00 0.00 99 1006.0
20260509213928 -17 321 0.0 0.0 0.00 0.00 0.00 99 1006.0
20260509213428 -17 216 0.0 0.0 0.00 0.00 0.00 99 1005.2
20260509212928 -17 267 0.0 0.0 0.00 0.00 0.00 99 1006.0
20260509212428 -17 180 0.0 0.0 0.00 0.00 0.00 99 1005.2
20260509211928 -17 252 0.0 0.0 0.00 0.00 0.00 99 1006.0
20260509211428 -17 220 0.0 0.0 0.00 0.00 0.00 99 1005.2
20260509210928 -17 252 0.0 0.0 0.00 0.00 0.00 99 1006.0
20260509210428 -17 227 0.0 0.0 0.00 0.00 0.00 99 1006.0
20260509205928 -17 221 0.0 0.0 0.00 0.00 0.00 99 1005.2
20260509205428 -17 226 0.0 0.0 0.00 0.00 0.00 99 1006.0
20260509204928 -17 219 0.0 0.0 0.00 0.00 0.00 99 1006.0
20260509204428 -17 268 0.0 0.0 0.00 0.00 0.00 99 1006.0
20260509203928 -17 219 0.0 0.0 0.00 0.00 0.00 99 1006.0
20260509203428 -17 266 0.0 0.0 0.00 0.00 0.00 99 1006.0
20260509202928 -17 259 0.0 0.0 0.00 0.00 0.00 99 1006.0
20260509202428 -17 240 0.0 0.0 0.00 0.00 0.00 99 1006.0
20260509201928 -17 208 0.0 0.0 0.00 0.00 0.00 99 1006.0
20260509201428 -17 216 0.0 0.0 0.00 0.00 0.00 99 1006.0
20260509200928 -17 187 0.0 0.0 0.00 0.00 0.00 99 1006.0
20260509200428 -17 215 0.0 0.0 0.00 0.00 0.00 99 1006.1
20260509195928 -17 227 0.0 0.0 0.00 0.00 0.00 99 1006.1
20260509195428 -17 227 0.0 0.0 0.00 0.00 0.00 99 1006.2
20260509194928 -17 258 0.0 0.0 0.00 0.00 0.00 99 1006.2
20260509194428 -17 236 0.0 4.8 0.00 0.00 0.00 99 1007.0
20260509193928 -17 231 1.6 4.8 0.00 0.00 0.00 99 1006.2
20260509193428 -17 222 3.2 4.8 0.00 0.00 0.00 99 1007.0
20260509192928 -17 220 3.2 8.0 0.00 0.00 0.00 99 1007.0
20260509192428 -17 217 1.6 8.0 0.00 0.00 0.00 99 1007.0
20260509191928 -17 222 1.6 6.4 0.00 0.00 0.00 99 1006.2
20260509191428 -17 232 1.6 6.4 0.00 0.00 0.00 99 1007.0
20260509190928 -17 226 1.6 6.4 0.00 0.00 0.00 99 1007.0
20260509190428 -17 234 1.6 6.4 0.00 0.00 0.00 99 1006.2
20260509185928 -17 252 1.6 4.8 0.00 0.00 0.00 99 1007.0
20260509185428 -17 232 0.0 0.0 0.00 0.00 0.00 99 1006.2
20260509184928 -17 235 0.0 0.0 0.00 0.00 0.00 99 1006.2
20260509184428 -17 247 0.0 0.0 0.00 0.00 0.00 99 1006.2
20260509183928 -17 257 0.0 0.0 0.00 0.00 0.00 99 1007.0
20260509183428 -17 220 0.0 0.0 0.00 0.00 0.00 99 1007.0
20260509182928 -17 236 0.0 0.0 0.00 0.00 0.00 99 1007.0
20260509182428 -17 228 0.0 0.0 0.00 0.00 0.00 99 1007.0
20260509181928 -17 188 0.0 0.0 0.00 0.00 0.00 99 1007.0
20260509181428 -17 231 0.0 0.0 0.00 0.00 0.00 99 1006.2
20260509180928 -17 215 0.0 0.0 0.00 0.00 0.00 99 1007.0
20260509180428 -17 222 0.0 0.0 0.00 0.00 0.00 99 1006.2
20260509175928 -17 258 0.0 0.0 0.00 0.00 0.00 99 1006.2
20260509175428 -17 230 0.0 0.0 0.00 0.00 0.00 99 1007.0
20260509174928 -17 226 0.0 0.0 0.00 0.00 0.00 99 1006.2
20260509174428 -17 218 0.0 0.0 0.00 0.00 0.00 99 1007.0
20260509173928 -17 272 0.0 0.0 0.00 0.00 0.00 99 1006.2
20260509173428 -17 223 0.0 0.0 0.00 0.00 0.00 99 1006.2
20260509172928 -17 219 0.0 0.0 0.00 0.00 0.00 99 1006.2
20260509172428 -17 228 0.0 0.0 0.00 0.00 0.00 99 1006.2
20260509171928 -17 266 0.0 0.0 0.00 0.00 0.00 99 1007.0
20260509171428 -17 220 0.0 6.4 0.00 0.00 0.00 99 1007.0